Date_and_time,latitude,longitude,wind_speed,RelWindDirFrom,WindDirFrom,air_pressure,air_temperature,relative_humidity,Temp,platform_speed_wrt_ground,air_pressure_at_mean_sea_level,platform_orientation
2018-06-15 23:50,50.91173,-96.9825233333333,5.2,8.3,250,977.48,25.7,36,19.74,0.0,1002.58,316.8
2018-06-16 00:00,50.91173,-96.9825283333333,4.7,8.4,243,977.55,26.3,34,19.74,0.0,1002.68,270.0
2018-06-16 00:10,50.9117216666667,-96.982515,6.1,9.4,250,977.65,25.8,35,19.76,0.0,1002.80,270.0
2018-06-16 00:20,50.9117266666667,-96.98252,5.4,7.8,253,977.76,25.5,36,19.76,0.0,1002.93,270.0
2018-06-16 00:30,50.9117283333333,-96.9825233333333,5.1,9.7,242,977.93,25.8,35,19.75,0.0,1003.09,270.0
2018-06-16 00:40,50.911745,-96.982505,3.5,7.5,228,978.08,25.4,36,19.75,0.0,1003.24,270.0
2018-06-16 00:50,50.91174,-96.98251,3.0,6.1,225,978.09,25.2,37,19.73,0.0,1003.28,270.0
2018-06-16 01:00,50.9117383333333,-96.9825183333333,3.2,6.1,225,978.20,25.2,36,19.71,0.0,1003.40,360.0
2018-06-16 01:10,50.9117266666667,-96.9825083333333,3.3,5.7,209,978.16,25.3,37,19.70,0.0,1003.34,360.0
2018-06-16 01:20,50.9117366666667,-96.9825083333333,3.4,6.0,212,978.10,24.8,39,19.69,0.0,1003.34,360.0
2018-06-16 01:30,50.9117333333333,-96.982515,3.8,6.5,215,978.37,24.5,40,19.68,0.0,1003.63,360.0
2018-06-16 01:40,50.9117333333333,-96.9825166666667,3.1,6.2,223,978.36,24.2,41,19.65,0.0,1003.62,360.0
2018-06-16 01:50,50.9117333333333,-96.9825183333333,3.0,5.1,223,978.44,23.9,42,19.63,0.0,1003.69,360.0
2018-06-16 02:00,50.9117333333333,-96.9825183333333,3.0,5.4,231,978.41,23.7,42,19.61,0.0,1003.69,90.0
2018-06-16 02:10,50.911735,-96.98252,3.0,4.9,220,978.62,23.5,43,19.59,0.0,1003.93,90.0
2018-06-16 02:20,50.9117333333333,-96.98252,2.9,4.8,228,978.76,23.3,44,19.57,0.0,1004.07,90.0
2018-06-16 02:30,50.9117516666667,-96.982525,3.1,5.4,219,978.74,22.9,45,19.54,0.0,1004.08,90.0
2018-06-16 02:40,50.911745,-96.9825133333333,3.2,5.2,227,978.88,22.6,45,19.51,0.0,1004.25,90.0
2018-06-16 02:50,50.9117033333333,-96.982535,5.6,10.2,245,979.03,22.2,46,19.48,0.0,1004.41,90.0
2018-06-16 03:00,50.911725,-96.9825233333333,6.8,9.6,261,979.23,21.8,48,19.46,0.0,1004.64,132.1
2018-06-16 03:10,50.9117283333333,-96.9825333333333,6.1,8.6,275,979.33,21.5,48,19.44,0.0,1004.77,132.1
2018-06-16 03:20,50.9117316666667,-96.9825316666667,6.4,7.8,281,979.48,21.3,49,19.42,0.0,1004.95,132.1
2018-06-16 03:30,50.9117333333333,-96.9825333333333,6.1,7.3,290,979.46,21.0,49,19.39,0.0,1004.95,132.1
2018-06-16 03:40,50.9117333333333,-96.982535,6.7,8.0,287,979.39,20.9,49,19.36,0.0,1004.90,132.1
2018-06-16 03:50,50.911735,-96.9825333333333,5.6,7.2,277,979.41,20.7,49,19.34,0.0,1004.94,132.1
2018-06-16 04:00,50.911735,-96.9825316666667,5.6,6.7,277,979.39,20.5,50,19.31,0.0,1004.93,189.8
2018-06-16 04:10,50.9117416666667,-96.9825233333333,5.2,6.6,278,979.32,20.4,50,19.28,0.0,1004.88,189.8
2018-06-16 04:20,50.91173,-96.982525,4.7,5.6,275,979.50,20.2,51,19.26,0.0,1005.08,189.8
2018-06-16 04:30,50.91173,-96.9825266666667,4.4,5.7,271,979.69,20.0,52,19.23,0.0,1005.30,189.8
2018-06-16 04:40,50.9117666666667,-96.9825183333333,5.2,6.1,281,979.68,19.8,52,19.21,0.0,1005.32,189.8
2018-06-16 04:50,50.91173,-96.982535,4.9,6.9,274,979.88,19.7,52,19.19,0.0,1005.55,189.8
2018-06-16 05:00,50.9117516666667,-96.9825,5.8,7.1,277,979.84,19.5,53,19.17,0.0,1005.52,26.6
2018-06-16 05:10,50.9117016666667,-96.9825316666667,5.4,7.5,273,979.84,19.4,53,19.16,0.0,1005.54,26.6
2018-06-16 05:20,50.911735,-96.98252,4.4,6.5,272,980.05,19.2,54,19.14,0.0,1005.78,26.6
2018-06-16 05:30,50.911735,-96.9825233333333,5.4,7.8,306,980.21,18.8,57,19.13,0.0,1005.96,26.6
2018-06-16 05:40,50.9117366666667,-96.9825233333333,5.7,7.1,286,980.13,18.7,57,19.11,0.0,1005.90,26.6
2018-06-16 05:50,50.9117116666667,-96.98254,5.7,7.0,277,980.26,18.5,58,19.10,0.0,1006.05,26.6
2018-06-16 06:00,50.9117266666667,-96.9825416666667,5.6,7.8,271,980.49,18.6,58,19.09,0.0,1006.29,288.0
2018-06-16 06:10,50.911725,-96.9825366666667,5.4,7.4,268,980.77,18.7,57,19.08,0.0,1006.58,288.0
2018-06-16 06:20,50.9117266666667,-96.9825333333333,5.8,7.8,271,981.04,18.7,58,19.07,0.0,1006.86,288.0
2018-06-16 06:30,50.9117533333333,-96.9825266666667,6.1,7.7,275,981.18,18.7,58,19.05,0.0,1007.01,288.0
2018-06-16 06:40,50.9117433333333,-96.9825316666667,5.8,7.3,281,981.13,18.6,58,19.04,0.0,1006.97,288.0
2018-06-16 06:50,50.9117383333333,-96.982535,6.7,9.1,281,981.15,18.4,61,19.03,0.0,1007.01,288.0
2018-06-16 07:00,50.9117366666667,-96.9825333333333,4.7,6.4,272,981.07,18.1,63,19.01,0.0,1006.94,270.0
2018-06-16 07:10,50.911715,-96.98254,2.9,5.1,251,981.11,17.7,67,19.00,0.0,1007.01,270.0
2018-06-16 07:20,50.9117,-96.98255,2.8,4.6,253,980.96,17.3,71,18.98,0.0,1006.89,270.0
2018-06-16 07:30,50.91173,-96.98252,4.1,6.2,256,980.94,16.8,77,18.97,0.0,1006.90,270.0
2018-06-16 07:40,50.911725,-96.9825233333333,3.2,5.9,279,980.85,16.8,76,18.96,0.0,1006.81,270.0
2018-06-16 07:50,50.9117266666667,-96.9825233333333,4.0,6.2,295,980.76,17.3,72,18.94,0.0,1006.71,270.0
2018-06-16 08:00,50.9117283333333,-96.9825316666667,3.3,4.9,286,980.74,17.1,76,18.93,0.0,1006.68,222.7
2018-06-16 08:10,50.91175,-96.982535,0.6,2.3,252,980.77,17.0,77,18.91,0.0,1006.72,222.7
2018-06-16 08:20,50.911735,-96.982525,0.4,1.8,123,980.77,17.0,82,18.89,0.0,1006.72,222.7
2018-06-16 08:30,50.911735,-96.9825316666667,2.7,4.7,202,980.81,16.8,83,18.88,0.0,1006.78,222.7
2018-06-16 08:40,50.9117366666667,-96.9825283333333,2.6,4.5,262,980.99,16.8,81,18.86,0.0,1006.97,222.7
2018-06-16 08:50,50.91174,-96.98253,3.6,5.6,267,981.09,16.6,78,18.85,0.0,1007.09,222.7
2018-06-16 09:00,50.9117383333333,-96.9825316666667,4.4,6.2,304,981.07,16.9,75,18.84,0.0,1007.07,48.9
2018-06-16 09:10,50.9117366666667,-96.98253,4.9,6.9,304,981.13,16.7,79,18.82,0.0,1007.17,48.9
2018-06-16 09:20,50.9117366666667,-96.98253,4.7,6.8,298,981.14,16.3,83,18.81,0.0,1007.21,48.9
2018-06-16 09:30,50.9117383333333,-96.9825283333333,4.9,6.4,294,981.12,15.9,88,18.79,0.0,1007.21,48.9
2018-06-16 09:40,50.9117383333333,-96.9825283333333,3.8,5.3,315,980.91,15.9,88,18.77,0.0,1006.97,48.9
2018-06-16 09:50,50.9117383333333,-96.9825266666667,3.5,4.2,325,980.85,15.9,89,18.75,0.0,1006.92,48.9
2018-06-16 10:00,50.9117383333333,-96.9825283333333,3.4,4.1,328,980.80,15.8,92,18.73,0.0,1006.89,9.8
2018-06-16 10:10,50.91171,-96.9825483333333,4.0,5.2,318,981.00,15.7,93,18.71,0.0,1007.09,9.8
2018-06-16 10:20,50.91173,-96.9825183333333,4.0,5.0,322,980.97,15.6,93,18.69,0.0,1007.07,9.8
2018-06-16 10:30,50.9117333333333,-96.9825216666667,5.0,6.2,325,980.90,15.3,96,18.67,0.0,1007.02,9.8
2018-06-16 10:40,50.9117416666667,-96.9825166666667,5.2,6.3,331,980.92,15.1,98,18.64,0.0,1007.05,9.8
2018-06-16 10:50,50.9117433333333,-96.9825016666667,6.4,7.5,335,980.99,15.1,99,18.61,0.0,1007.12,9.8
2018-06-16 11:00,50.9117366666667,-96.9825116666667,4.9,6.1,331,980.83,15.3,99,18.58,0.0,1006.95,60.5
2018-06-16 11:10,50.9117383333333,-96.9825166666667,4.7,6.4,323,981.04,15.5,98,18.55,0.0,1007.18,60.5
2018-06-16 11:20,50.9117283333333,-96.9824883333333,4.9,6.6,331,981.20,15.6,98,18.53,0.0,1007.34,60.5
2018-06-16 11:30,50.9117383333333,-96.9825166666667,5.8,7.3,337,981.16,15.4,99,18.52,0.0,1007.31,60.5
2018-06-16 11:40,50.9117383333333,-96.9825183333333,6.4,8.2,350,981.20,15.8,99,18.52,0.0,1007.34,60.5
2018-06-16 11:50,50.9117383333333,-96.9825183333333,6.3,8.4,358,981.30,16.7,93,18.52,0.0,1007.41,60.5
2018-06-16 12:00,50.91174,-96.98252,5.4,7.9,355,981.49,17.2,87,18.52,0.0,1007.58,90.0
2018-06-16 12:10,50.91174,-96.9825183333333,5.1,7.5,354,981.69,17.6,82,18.52,0.0,1007.78,90.0
2018-06-16 12:20,50.9117383333333,-96.9825183333333,5.2,7.3,346,981.83,18.1,81,18.53,0.0,1007.91,90.0
2018-06-16 12:30,50.9117366666667,-96.98252,5.8,7.7,343,982.20,18.4,80,18.54,0.0,1008.29,90.0
2018-06-16 12:40,50.9117366666667,-96.9825416666667,4.8,7.5,350,982.47,18.6,77,18.56,0.0,1008.55,90.0
2018-06-16 12:50,50.911735,-96.9825233333333,4.2,5.8,358,982.60,19.0,73,18.56,0.0,1008.66,90.0
2018-06-16 13:00,50.9117583333333,-96.9825416666667,4.1,6.9,15,982.63,20.0,67,18.58,0.0,1008.64,312.1
2018-06-16 13:10,50.9117433333333,-96.9825266666667,5.2,8.3,11,982.72,20.0,65,18.60,0.0,1008.72,312.1
2018-06-16 13:20,50.9117383333333,-96.9825216666667,4.3,6.3,358,982.76,19.8,70,18.61,0.0,1008.78,312.1
2018-06-16 13:30,50.9117366666667,-96.98252,4.8,7.5,1,982.91,19.9,67,18.63,0.0,1008.91,312.1
2018-06-16 13:40,50.9117366666667,-96.98252,6.4,12.8,356,982.91,20.0,66,18.63,0.0,1008.87,312.1
2018-06-16 13:50,50.911735,-96.98252,7.9,11.9,355,982.85,19.8,67,18.64,0.0,1008.79,312.1
2018-06-16 14:00,50.911735,-96.9825216666667,9.7,13.2,348,982.89,19.6,66,18.65,0.0,1008.82,270.0
2018-06-16 14:10,50.91173,-96.9825383333333,8.0,12.9,2,983.03,19.8,67,18.66,0.0,1008.94,270.0
2018-06-16 14:20,50.911725,-96.9825283333333,8.1,13.7,2,983.28,19.9,68,18.67,0.0,1009.17,270.0
2018-06-16 14:30,50.911725,-96.9825266666667,7.5,11.1,359,983.48,20.0,66,18.69,0.0,1009.36,270.0
2018-06-16 14:40,50.9117233333333,-96.982525,7.1,11.4,2,983.40,20.5,62,18.75,0.0,1009.24,270.0
2018-06-16 14:50,50.9117266666667,-96.9825266666667,9.9,14.6,353,983.31,20.4,61,18.88,0.0,1009.12,270.0
2018-06-16 15:00,50.911725,-96.982525,10.1,14.8,349,983.36,20.3,60,19.04,0.0,1009.17,360.0
2018-06-16 15:10,50.911725,-96.982525,10.9,15.3,344,983.34,20.2,62,19.10,0.0,1009.16,360.0
2018-06-16 15:20,50.9117266666667,-96.982525,11.5,17.1,353,983.28,20.1,62,19.38,0.0,1009.10,360.0
2018-06-16 15:30,50.9117266666667,-96.982525,10.8,15.9,350,983.50,19.8,63,19.52,0.0,1009.33,360.0
2018-06-16 15:40,50.9117266666667,-96.982525,9.6,14.7,341,983.52,19.9,63,19.44,0.0,1009.36,360.0
2018-06-16 15:50,50.91174,-96.9825133333333,9.0,14.5,355,983.48,20.0,62,19.64,0.0,1009.32,360.0
2018-06-16 16:00,50.9117366666667,-96.9825166666667,11.0,15.0,355,983.55,20.2,61,20.19,0.0,1009.37,132.3
2018-06-16 16:10,50.9117383333333,-96.98252,9.9,14.7,359,983.65,20.1,60,20.25,0.0,1009.48,132.3
2018-06-16 16:20,50.911735,-96.9825233333333,9.8,14.1,349,983.67,20.3,59,20.15,0.0,1009.49,132.3
2018-06-16 16:30,50.9117166666667,-96.9825233333333,8.5,12.9,347,983.61,20.5,59,20.02,0.0,1009.40,132.3
2018-06-16 16:40,50.9117216666667,-96.9825216666667,7.6,13.3,1,983.54,20.3,58,19.88,0.0,1009.34,132.3
2018-06-16 16:50,50.9117183333333,-96.9825066666667,9.0,13.0,356,983.51,20.3,56,19.77,0.0,1009.31,132.3
2018-06-16 17:00,50.911725,-96.9825133333333,8.9,14.4,4,983.47,20.4,54,19.73,0.0,1009.27,167.1
2018-06-16 17:10,50.9117266666667,-96.9825266666667,10.8,14.9,349,983.22,20.3,53,20.17,0.0,1009.02,167.1
2018-06-16 17:20,50.9117266666667,-96.98253,7.9,14.5,2,983.30,20.4,53,20.35,0.0,1009.11,167.1
2018-06-16 17:30,50.9117266666667,-96.9825266666667,10.5,15.8,348,983.32,20.3,54,20.23,0.0,1009.13,167.1
2018-06-16 17:40,50.9117266666667,-96.9825266666667,10.8,15.3,352,983.31,20.4,53,20.16,0.0,1009.12,167.1
2018-06-16 17:50,50.9117316666667,-96.982515,10.3,15.0,352,983.04,20.7,52,20.07,0.0,1008.82,167.1
2018-06-16 18:00,50.9117283333333,-96.9825283333333,9.9,14.7,10,982.68,20.8,50,19.95,0.0,1008.45,360.0
2018-06-16 18:10,50.91173,-96.98253,11.3,17.9,359,982.68,20.7,49,19.84,0.0,1008.43,360.0
2018-06-16 18:20,50.9117283333333,-96.9825266666667,10.3,17.8,353,982.87,20.6,49,19.76,0.0,1008.63,360.0
2018-06-16 18:30,50.9117283333333,-96.982525,9.5,14.5,7,983.15,20.1,50,19.70,0.0,1008.95,360.0
2018-06-16 18:40,50.9117283333333,-96.982525,8.5,13.1,352,983.29,20.0,50,19.65,0.0,1009.10,360.0
2018-06-16 18:50,50.9117283333333,-96.982525,8.5,12.8,357,983.53,19.8,50,19.59,0.0,1009.34,360.0
2018-06-16 19:00,50.911725,-96.9825316666667,6.4,10.7,342,983.72,19.7,51,19.52,0.0,1009.55,216.0
2018-06-16 19:10,50.91173,-96.9825233333333,7.5,10.9,346,983.79,19.8,50,19.45,0.0,1009.62,216.0
2018-06-16 19:20,50.9117466666667,-96.98251,8.1,11.7,349,983.89,19.8,49,19.39,0.0,1009.72,216.0
2018-06-16 19:30,50.9117466666667,-96.98253,6.2,10.1,357,983.83,19.7,50,19.34,0.0,1009.66,216.0
2018-06-16 19:40,50.91173,-96.9825233333333,6.9,11.0,356,983.78,19.7,50,19.30,0.0,1009.59,216.0
2018-06-16 19:50,50.9117416666667,-96.982565,7.5,10.7,2,983.70,19.8,49,19.28,0.0,1009.51,216.0
2018-06-16 20:00,50.91172,-96.982515,7.3,11.3,16,983.55,19.9,49,19.23,0.0,1009.35,360.0
2018-06-16 20:10,50.9117333333333,-96.9824983333333,6.1,10.6,8,983.47,20.0,49,19.12,0.0,1009.27,360.0
2018-06-16 20:20,50.9117366666667,-96.9825383333333,7.6,13.1,12,983.18,20.0,49,19.07,0.0,1008.99,360.0
2018-06-16 20:30,50.9117316666667,-96.9825333333333,10.3,16.4,38,983.05,19.9,54,19.05,0.0,1008.87,360.0
2018-06-16 20:40,50.9117333333333,-96.98253,9.6,15.7,33,983.30,19.3,55,19.04,0.0,1009.16,360.0
2018-06-16 20:50,50.9117333333333,-96.9825266666667,7.3,12.0,30,983.72,19.1,55,19.03,0.0,1009.61,360.0
2018-06-16 21:00,50.9117466666667,-96.9825883333333,5.9,10.0,30,984.03,19.0,57,19.02,0.0,1009.93,292.6
2018-06-16 21:10,50.9117366666667,-96.9825233333333,6.0,10.4,18,984.10,19.0,56,19.01,0.0,1010.00,292.6
2018-06-16 21:20,50.91174,-96.98253,5.5,9.3,7,984.32,19.0,56,19.00,0.0,1010.23,292.6
2018-06-16 21:30,50.9117383333333,-96.98253,5.3,10.3,26,984.22,19.3,54,18.99,0.0,1010.11,292.6
2018-06-16 21:40,50.9117333333333,-96.98252,5.9,9.1,34,984.15,19.7,53,18.99,0.0,1010.01,292.6
2018-06-16 21:50,50.9117383333333,-96.98253,5.9,9.6,43,984.07,20.0,54,18.96,0.0,1009.92,292.6
2018-06-16 22:00,50.9117333333333,-96.9825266666667,6.3,10.3,50,984.16,19.7,59,19.01,0.0,1010.02,37.5
2018-06-16 22:10,50.9117316666667,-96.9825216666667,8.4,10.2,51,984.07,19.4,60,19.02,0.0,1009.94,37.5
2018-06-16 22:20,50.91173,-96.982525,7.0,9.5,58,984.19,19.3,61,19.03,0.0,1010.07,37.5
2018-06-16 22:30,50.9117283333333,-96.9825266666667,7.4,9.6,60,984.35,19.3,61,19.04,0.0,1010.26,37.5
2018-06-16 22:40,50.9117333333333,-96.982535,6.3,8.2,60,984.50,19.2,62,19.04,0.0,1010.43,37.5
2018-06-16 22:50,50.91172,-96.9825316666667,4.0,6.1,58,984.67,19.2,62,19.04,0.0,1010.60,37.5
2018-06-16 23:00,50.911725,-96.9825383333333,4.1,5.3,52,984.54,19.1,61,19.05,0.0,1010.48,293.9
2018-06-16 23:10,50.9117283333333,-96.9825433333333,3.6,5.0,57,984.49,18.9,63,19.04,0.0,1010.43,293.9
2018-06-16 23:20,50.91173,-96.9825433333333,3.0,4.5,62,984.47,19.0,63,19.03,0.0,1010.40,293.9
2018-06-16 23:30,50.9117033333333,-96.9825033333333,3.5,4.7,77,984.55,19.2,66,19.02,0.0,1010.45,293.9
2018-06-16 23:40,50.9117116666667,-96.9825216666667,3.2,4.6,72,984.44,19.1,63,19.02,0.0,1010.32,293.9
2018-06-16 23:50,50.9117183333333,-96.9825233333333,2.7,4.1,57,984.49,19.0,65,19.01,0.0,1010.40,293.9
